Weather in Camacari

Brazil     12°41′47″S   38°20′28″W
temp.,
°C
wind,
m/s
gust,
m/s
humid.,
%
clouds,
%
prec.,
mm/h
press.,
hPa
HPBL,
m
14 april, wed
wed1400:00+23ese24865 0.0 1015181
03:00+23se13857 0.0 1013177
06:00+23s12855 0.0 1014175
09:00+28sse345843 0.0 10161327
12:00+30sse4449100 0.0 10141478
15:00+28sse455311 0.0 10131371
18:00+24sse476678 0.0 1014394
21:00+25se49635 0.0 1016529
15 april, thu
thu1500:00+24se376556 0.0 1015341
03:00+23sse25705 0.0 1013252
06:00+23se247997 0.1 1014248
09:00+26se347690 1.6 1016833
12:00+26sse357813 2.8 1014772
15:00+26s357362 4.5 1012896
18:00+23sse368789 1.4 1013240
21:00+23sse379193 3.9 1015258
16 april, fri
fri1600:00+23sse259098 4.6 1014262
03:00+22s259239 6.4 1013181
06:00+23sse249290 1.8 1014166
09:00+26sse468350 5.3 1015666
12:00+26sse467923 3.3 1014926
15:00+26sse477825 6.1 1012972
18:00+24sse377630 0.2 1013341
21:00+24se35779 0.2 1014276
17 april, sat
sat1700:00+23se247840 0.0 1014233
03:00+23se247738 0.0 1012196
06:00+23se237813 0.0 1014188
09:00+28sse335715 0.0 10151223
12:00+29se43515 0.0 10131365
15:00+28se4456100 0.0 10111097
18:00+24se247597 0.0 1013203
21:00+24ese258390 0.0 1014219
18 april, sun
sun1800:00+24e2486100 0.1 1013220
03:00+23e238756 0.8 1012168
06:00+23e239294 1.1 1013160
09:00+26e238171 4.1 1015568
12:00+27e237856 3.1 1013808
15:00+28ese336999 4.3 1011983
18:00+24ese258693 0.1 1013207
21:00+24e258899 0.3 1014221